Tracking 31027 objects as of 19-Jul-2025
HD Live streaming from Space Station
objects crossing your sky now

ARIANE 5 R/B

Track ARIANE 5 R/B now!


NORAD ID: 27946
Int'l Code: 2003-043B
Perigee: 617.5 km
Apogee: 36,054.5 km
Inclination: 7.8 °
Period: 644.2 minutes
Semi major axis: 24706 km
RCS: 26.85 m2 (large)
Launch date: September 27, 2003
Source: France (FR)
Launch site: FRENCH GUIANA (FRGUI)

Note: This is a ROCKET BODY
Your satellite tracking list
STARLINK-5088
Track 1 satellite(s)




NASA's NSSDC Master Catalog

Two Line Element Set (TLE):
1 27946U 03043B   25199.20825496 -.00000174  00000-0  29370-6 0  9990
2 27946   7.7665  90.7004 7171464 221.6613  52.6174  2.23549545178147
Source of the keplerian elements: AFSPC